N800KS SPJC-MMPR

Flight info

Callsign N800KS
Flight time 6h 31m
Altitude FL340
Route ISREN UL312 REBAN UL344 VODIR/N0450F360 UL344 ACA UJ3 EBDEG DCT LIPEP LIPEP1E
Aircraft BBJ1/M-SDE2E3FGHIRWXY/LB1

Departure

Time 2026-04-23 21:27
Airport Jorge Chávez International Airport (SPJC)

Arrival

Time 2026-04-24 03:59
Airport Puerto Vallarta International Airport (MMPR)
Time Latitude Longitude Altitude Speed Heading
2026-04-23 21:01 -12.02871 -77.10816 123 ft 0 kts 244°
2026-04-23 21:10 -12.02870 -77.10816 123 ft 1 kts 244°
2026-04-23 21:10 -12.02865 -77.10804 123 ft 2 kts 244°
2026-04-23 21:10 -12.02857 -77.10787 123 ft 3 kts 244°
2026-04-23 21:11 -12.02852 -77.10776 123 ft 0 kts 244°
2026-04-23 21:11 -12.02852 -77.10777 123 ft 2 kts 246°
2026-04-23 21:11 -12.02843 -77.10796 123 ft 3 kts 332°
2026-04-23 21:11 -12.02819 -77.10806 123 ft 4 kts 338°
2026-04-23 21:12 -12.02786 -77.10820 123 ft 6 kts 338°
2026-04-23 21:12 -12.02744 -77.10838 123 ft 7 kts 336°
2026-04-23 21:12 -12.02672 -77.10862 123 ft 8 kts
2026-04-23 21:12 -12.02641 -77.10839 123 ft 8 kts 32°
2026-04-23 21:13 -12.02604 -77.10843 123 ft 8 kts 340°
2026-04-23 21:13 -12.02585 -77.10850 123 ft 9 kts 338°
2026-04-23 21:13 -12.02530 -77.10876 123 ft 8 kts 334°
2026-04-23 21:13 -12.02481 -77.10900 123 ft 8 kts 334°
2026-04-23 21:14 -12.02434 -77.10923 123 ft 7 kts 334°
2026-04-23 21:14 -12.02392 -77.10944 123 ft 6 kts 334°
2026-04-23 21:14 -12.02355 -77.10965 123 ft 6 kts 322°
2026-04-23 21:14 -12.02344 -77.10999 123 ft 5 kts 275°
2026-04-23 21:15 -12.02340 -77.11036 123 ft 5 kts 278°
2026-04-23 21:15 -12.02333 -77.11073 123 ft 6 kts 282°
2026-04-23 21:15 -12.02324 -77.11115 123 ft 7 kts 282°
2026-04-23 21:15 -12.02306 -77.11162 123 ft 8 kts 307°
2026-04-23 21:16 -12.02260 -77.11196 123 ft 9 kts 329°
2026-04-23 21:16 -12.02209 -77.11224 123 ft 8 kts 332°
2026-04-23 21:16 -12.02163 -77.11248 123 ft 7 kts 333°
2026-04-23 21:16 -12.02119 -77.11270 123 ft 7 kts 333°
2026-04-23 21:17 -12.02078 -77.11291 123 ft 6 kts 333°
2026-04-23 21:17 -12.02039 -77.11312 123 ft 6 kts 333°
2026-04-23 21:17 -12.02000 -77.11332 123 ft 6 kts 333°
2026-04-23 21:17 -12.01962 -77.11352 123 ft 6 kts 333°
2026-04-23 21:18 -12.01923 -77.11372 123 ft 6 kts 333°
2026-04-23 21:18 -12.01882 -77.11393 123 ft 7 kts 333°
2026-04-23 21:18 -12.01840 -77.11415 123 ft 7 kts 333°
2026-04-23 21:18 -12.01798 -77.11437 123 ft 7 kts 333°
2026-04-23 21:19 -12.01757 -77.11458 123 ft 7 kts 333°
2026-04-23 21:19 -12.01717 -77.11478 123 ft 6 kts 334°
2026-04-23 21:19 -12.01677 -77.11498 123 ft 6 kts 334°
2026-04-23 21:19 -12.01637 -77.11518 123 ft 6 kts 334°
2026-04-23 21:20 -12.01597 -77.11537 123 ft 6 kts 334°
2026-04-23 21:20 -12.01557 -77.11557 123 ft 7 kts 334°
2026-04-23 21:20 -12.01515 -77.11578 123 ft 7 kts 334°
2026-04-23 21:20 -12.01471 -77.11600 123 ft 7 kts 334°
2026-04-23 21:21 -12.01426 -77.11622 123 ft 7 kts 334°
2026-04-23 21:21 -12.01378 -77.11646 123 ft 8 kts 334°
2026-04-23 21:21 -12.01329 -77.11670 123 ft 8 kts 334°
2026-04-23 21:21 -12.01279 -77.11696 123 ft 8 kts 333°
2026-04-23 21:22 -12.01227 -77.11722 123 ft 9 kts 334°
2026-04-23 21:22 -12.01173 -77.11749 123 ft 9 kts 334°
2026-04-23 21:22 -12.01118 -77.11777 123 ft 9 kts 333°
2026-04-23 21:22 -12.01061 -77.11806 123 ft 9 kts 334°
2026-04-23 21:23 -12.01002 -77.11835 123 ft 10 kts 334°
2026-04-23 21:23 -12.00942 -77.11865 123 ft 10 kts 334°
2026-04-23 21:23 -12.00883 -77.11894 123 ft 9 kts 334°
2026-04-23 21:23 -12.00827 -77.11922 123 ft 9 kts 334°
2026-04-23 21:24 -12.00781 -77.11948 123 ft 6 kts 309°
2026-04-23 21:24 -12.00784 -77.11986 123 ft 5 kts 242°
2026-04-23 21:24 -12.00802 -77.12020 123 ft 5 kts 242°
2026-04-23 21:24 -12.00816 -77.12048 123 ft 4 kts 242°
2026-04-23 21:25 -12.00827 -77.12066 123 ft 2 kts 236°
2026-04-23 21:25 -12.00838 -77.12078 123 ft 2 kts 220°
2026-04-23 21:25 -12.00851 -77.12086 123 ft 2 kts 197°
2026-04-23 21:25 -12.00864 -77.12084 123 ft 2 kts 162°
2026-04-23 21:26 -12.00876 -77.12080 123 ft 2 kts 158°
2026-04-23 21:26 -12.00890 -77.12074 123 ft 2 kts 156°
2026-04-23 21:26 -12.00893 -77.12072 123 ft 2 kts 155°
2026-04-23 21:26 -12.01191 -77.11925 123 ft 93 kts 154°
2026-04-23 21:27 -12.02036 -77.11508 143 ft 172 kts 154°
2026-04-23 21:27 -12.03233 -77.10919 745 ft 201 kts 154°
2026-04-23 21:27 -12.04539 -77.10284 1572 ft 218 kts 155°
2026-04-23 21:27 -12.05822 -77.09678 2963 ft 179 kts 155°
2026-04-23 21:28 -12.06887 -77.09173 3976 ft 180 kts 155°
2026-04-23 21:28 -12.07784 -77.08750 4033 ft 210 kts 155°
2026-04-23 21:28 -12.08541 -77.08410 4373 ft 212 kts 156°
2026-04-23 21:28 -12.09864 -77.07824 5165 ft 219 kts 158°
2026-04-23 21:29 -12.11395 -77.07131 5139 ft 263 kts 157°
2026-04-23 21:29 -12.13099 -77.06360 5268 ft 268 kts 158°
2026-04-23 21:29 -12.14811 -77.05782 5153 ft 259 kts 170°
2026-04-23 21:29 -12.16585 -77.05993 5478 ft 256 kts 203°
2026-04-23 21:30 -12.17972 -77.07015 5931 ft 245 kts 231°
2026-04-23 21:30 -12.18639 -77.08560 6014 ft 237 kts 262°
2026-04-23 21:30 -12.18379 -77.10182 6018 ft 233 kts 292°
2026-04-23 21:30 -12.17575 -77.11609 6009 ft 235 kts 299°
2026-04-23 21:31 -12.16815 -77.13143 6034 ft 248 kts 294°
2026-04-23 21:31 -12.16205 -77.14808 6027 ft 253 kts 287°
2026-04-23 21:31 -12.15763 -77.16541 6016 ft 253 kts 283°
2026-04-23 21:31 -12.15462 -77.18306 6007 ft 253 kts 278°
2026-04-23 21:32 -12.15291 -77.20096 6002 ft 253 kts 275°
2026-04-23 21:32 -12.15252 -77.21889 5997 ft 253 kts 270°
2026-04-23 21:32 -12.15336 -77.23677 5998 ft 254 kts 268°
2026-04-23 21:32 -12.15144 -77.25460 6249 ft 254 kts 292°
2026-04-23 21:33 -12.14088 -77.26867 7412 ft 253 kts 314°
2026-04-23 21:33 -12.12683 -77.27964 8420 ft 257 kts 320°
2026-04-23 21:33 -12.11239 -77.29074 9221 ft 266 kts 320°
2026-04-23 21:33 -12.09733 -77.30213 10083 ft 271 kts 320°
2026-04-23 21:34 -12.08174 -77.31374 10672 ft 288 kts 321°
2026-04-23 21:34 -12.06496 -77.32606 11202 ft 304 kts 321°
2026-04-23 21:34 -12.04737 -77.33880 11800 ft 318 kts 322°
2026-04-23 21:34 -12.02908 -77.35189 12468 ft 328 kts 322°
2026-04-23 21:35 -12.00388 -77.36976 13529 ft 334 kts 322°
2026-04-23 21:35 -11.99113 -77.37877 14101 ft 336 kts 322°
2026-04-23 21:35 -11.97182 -77.39238 14904 ft 341 kts 322°
2026-04-23 21:35 -11.95213 -77.40623 15674 ft 345 kts 322°
2026-04-23 21:36 -11.91229 -77.43419 17181 ft 353 kts 322°
2026-04-23 21:36 -11.89197 -77.44842 17908 ft 357 kts 322°
2026-04-23 21:36 -11.87145 -77.46279 18612 ft 361 kts 322°
2026-04-23 21:37 -11.85086 -77.47719 19280 ft 365 kts 322°
2026-04-23 21:37 -11.82971 -77.49197 19949 ft 368 kts 322°
2026-04-23 21:37 -11.80852 -77.50677 20583 ft 372 kts 322°
2026-04-23 21:37 -11.78684 -77.52125 21203 ft 376 kts 324°
2026-04-23 21:38 -11.76458 -77.53542 21792 ft 380 kts 325°
2026-04-23 21:38 -11.74199 -77.54958 22349 ft 384 kts 325°
2026-04-23 21:38 -11.71919 -77.56372 22960 ft 385 kts 326°
2026-04-23 21:38 -11.69620 -77.57794 23479 ft 390 kts 326°
2026-04-23 21:39 -11.67295 -77.59228 23969 ft 393 kts 326°
2026-04-23 21:39 -11.64943 -77.60677 24493 ft 396 kts 326°
2026-04-23 21:39 -11.62585 -77.62128 24961 ft 399 kts 326°
2026-04-23 21:39 -11.60208 -77.63589 25382 ft 402 kts 326°
2026-04-23 21:40 -11.57805 -77.65065 25814 ft 405 kts 326°
2026-04-23 21:40 -11.55396 -77.66544 26230 ft 407 kts 326°
2026-04-23 21:40 -11.52965 -77.68035 26614 ft 410 kts 326°
2026-04-23 21:40 -11.50516 -77.69537 27002 ft 413 kts 326°
2026-04-23 21:41 -11.48058 -77.71044 27377 ft 415 kts 326°
2026-04-23 21:41 -11.45579 -77.72563 27743 ft 418 kts 326°
2026-04-23 21:41 -11.43092 -77.74087 28098 ft 420 kts 326°
2026-04-23 21:41 -11.40583 -77.75624 28436 ft 422 kts 326°
2026-04-23 21:42 -11.37221 -77.77683 28879 ft 425 kts 326°
2026-04-23 21:42 -11.35532 -77.78717 29087 ft 427 kts 326°
2026-04-23 21:42 -11.32987 -77.80275 29393 ft 429 kts 326°
2026-04-23 21:42 -11.30432 -77.81839 29692 ft 431 kts 326°
2026-04-23 21:43 -11.27858 -77.83414 29987 ft 433 kts 326°
2026-04-23 21:43 -11.25279 -77.84991 30271 ft 435 kts 326°
2026-04-23 21:43 -11.22683 -77.86579 30581 ft 436 kts 326°
2026-04-23 21:43 -11.20091 -77.88164 30933 ft 435 kts 326°
2026-04-23 21:44 -11.17504 -77.89745 31287 ft 435 kts 326°
2026-04-23 21:44 -11.14920 -77.91325 31636 ft 434 kts 326°
2026-04-23 21:44 -11.12343 -77.92899 31979 ft 433 kts 326°
2026-04-23 21:44 -11.09765 -77.94472 32315 ft 433 kts 327°
2026-04-23 21:45 -11.07146 -77.95985 32666 ft 432 kts 328°
2026-04-23 21:45 -11.04520 -77.97438 32978 ft 432 kts 329°
2026-04-23 21:45 -11.01867 -77.98877 33292 ft 432 kts 329°
2026-04-23 21:45 -10.99211 -78.00292 33599 ft 431 kts 329°
2026-04-23 21:46 -10.96558 -78.01693 33892 ft 431 kts 329°
2026-04-23 21:46 -10.91248 -78.04489 33993 ft 431 kts 330°
2026-04-23 21:47 -10.85937 -78.07280 33996 ft 431 kts 330°
2026-04-23 21:47 -10.80618 -78.10072 33996 ft 431 kts 330°
2026-04-23 21:48 -10.75304 -78.12860 33997 ft 431 kts 330°
2026-04-23 21:48 -10.69984 -78.15648 33997 ft 431 kts 330°
2026-04-23 21:49 -10.64662 -78.18437 33996 ft 431 kts 330°
2026-04-23 21:49 -10.59344 -78.21222 33996 ft 431 kts 330°
2026-04-23 21:50 -10.54019 -78.24010 33996 ft 431 kts 330°
2026-04-23 21:50 -10.48697 -78.26795 33997 ft 431 kts 330°
2026-04-23 21:51 -10.43381 -78.29576 33996 ft 431 kts 330°
2026-04-23 21:51 -10.38058 -78.32360 33996 ft 431 kts 330°
2026-04-23 21:52 -10.32920 -78.35045 33996 ft 430 kts 330°
2026-04-23 21:52 -10.27607 -78.37821 33996 ft 430 kts 330°
2026-04-23 21:53 -10.22300 -78.40593 33996 ft 430 kts 330°
2026-04-23 21:53 -10.16985 -78.43368 33996 ft 430 kts 330°
2026-04-23 21:54 -10.11672 -78.46141 33996 ft 430 kts 330°
2026-04-23 21:54 -10.06361 -78.48912 33997 ft 431 kts 330°
2026-04-23 21:55 -10.00157 -78.52147 33997 ft 431 kts 330°
2026-04-23 21:55 -9.95733 -78.54453 33997 ft 430 kts 330°
2026-04-23 21:56 -9.90420 -78.57222 33997 ft 430 kts 330°
2026-04-23 21:56 -9.85108 -78.59989 33997 ft 430 kts 330°
2026-04-23 21:57 -9.79799 -78.62754 33996 ft 429 kts 330°
2026-04-23 21:57 -9.74521 -78.65501 33997 ft 430 kts 330°
2026-04-23 21:58 -9.69368 -78.68523 33999 ft 428 kts 324°
2026-04-23 21:58 -9.64564 -78.72041 33995 ft 426 kts 318°
2026-04-23 21:59 -9.60075 -78.75923 33997 ft 425 kts 317°
2026-04-23 21:59 -9.55555 -78.79758 33996 ft 425 kts 318°
2026-04-23 22:00 -9.48701 -78.85439 33996 ft 425 kts 318°
2026-04-23 22:00 -9.44124 -78.89212 33997 ft 425 kts 318°
2026-04-23 22:01 -9.39547 -78.92978 33997 ft 425 kts 318°
2026-04-23 22:01 -9.34962 -78.96747 33997 ft 425 kts 318°
2026-04-23 22:02 -9.30378 -79.00513 33997 ft 425 kts 318°
2026-04-23 22:02 -9.25799 -79.04272 33996 ft 425 kts 318°
2026-04-23 22:03 -9.21221 -79.08030 33996 ft 425 kts 318°
2026-04-23 22:03 -9.16640 -79.11788 33996 ft 425 kts 318°
2026-04-23 22:04 -9.12063 -79.15542 33996 ft 425 kts 318°
2026-04-23 22:04 -9.07488 -79.19293 33996 ft 425 kts 318°
2026-04-23 22:05 -9.02905 -79.23048 33996 ft 425 kts 318°
2026-04-23 22:05 -8.98327 -79.26799 33996 ft 425 kts 318°
2026-04-23 22:06 -8.93742 -79.30554 33996 ft 425 kts 318°
2026-04-23 22:06 -8.89163 -79.34303 33997 ft 425 kts 318°
2026-04-23 22:07 -8.84580 -79.38053 33997 ft 425 kts 318°
2026-04-23 22:07 -8.79999 -79.41802 33997 ft 425 kts 318°
2026-04-23 22:08 -8.75416 -79.45550 33996 ft 425 kts 318°
2026-04-23 22:08 -8.70835 -79.49295 33997 ft 425 kts 318°
2026-04-23 22:09 -8.66251 -79.53042 33997 ft 425 kts 318°
2026-04-23 22:09 -8.61666 -79.56788 33997 ft 425 kts 318°
2026-04-23 22:10 -8.57084 -79.60531 33997 ft 425 kts 319°
2026-04-23 22:10 -8.52500 -79.64274 33997 ft 425 kts 319°
2026-04-23 22:11 -8.47917 -79.68015 33996 ft 425 kts 319°
2026-04-23 22:11 -8.43321 -79.71743 33996 ft 425 kts 319°
2026-04-23 22:12 -8.38727 -79.75473 33996 ft 425 kts 319°
2026-04-23 22:12 -8.34153 -79.79189 33996 ft 425 kts 319°
2026-04-23 22:13 -8.29544 -79.82933 33996 ft 424 kts 319°
2026-04-23 22:13 -8.24957 -79.86659 33997 ft 424 kts 319°
2026-04-23 22:14 -8.20370 -79.90384 33997 ft 424 kts 319°
2026-04-23 22:14 -8.15782 -79.94109 33997 ft 424 kts 319°
2026-04-23 22:15 -8.11194 -79.97833 33996 ft 424 kts 319°
2026-04-23 22:15 -8.06614 -80.01549 33996 ft 424 kts 319°
2026-04-23 22:16 -8.02018 -80.05277 33996 ft 424 kts 319°
2026-04-23 22:16 -7.97431 -80.08996 33996 ft 424 kts 319°
2026-04-23 22:17 -7.92859 -80.12703 33996 ft 424 kts 319°
2026-04-23 22:17 -7.88270 -80.16422 33996 ft 424 kts 319°
2026-04-23 22:18 -7.83678 -80.20142 33996 ft 424 kts 319°
2026-04-23 22:18 -7.79087 -80.23861 33996 ft 424 kts 319°
2026-04-23 22:19 -7.74498 -80.27576 33997 ft 424 kts 319°
2026-04-23 22:19 -7.69899 -80.31299 33997 ft 424 kts 319°
2026-04-23 22:20 -7.65313 -80.35010 33996 ft 424 kts 319°
2026-04-23 22:20 -7.60717 -80.38728 33996 ft 424 kts 319°
2026-04-23 22:21 -7.56227 -80.42360 33996 ft 424 kts 319°
2026-04-23 22:21 -7.51699 -80.46021 33996 ft 424 kts 319°
2026-04-23 22:22 -7.47105 -80.49734 33996 ft 424 kts 319°
2026-04-23 22:22 -7.42521 -80.53439 33996 ft 424 kts 319°
2026-04-23 22:23 -7.37933 -80.57146 33996 ft 424 kts 319°
2026-04-23 22:23 -7.35549 -80.59071 33997 ft 424 kts 319°
2026-04-23 22:24 -7.31031 -80.62720 33997 ft 424 kts 319°
2026-04-23 22:24 -7.26445 -80.66422 33997 ft 424 kts 319°
2026-04-23 22:25 -7.21861 -80.70122 33997 ft 424 kts 319°
2026-04-23 22:25 -7.17270 -80.73827 33996 ft 424 kts 319°
2026-04-23 22:26 -7.12683 -80.77526 33996 ft 424 kts 319°
2026-04-23 22:26 -7.08160 -80.81174 33996 ft 424 kts 319°
2026-04-23 22:27 -7.03561 -80.84882 33996 ft 424 kts 319°
2026-04-23 22:27 -6.98975 -80.88579 33996 ft 424 kts 319°
2026-04-23 22:28 -6.94379 -80.92282 33996 ft 424 kts 319°
2026-04-23 22:28 -6.89790 -80.95980 33996 ft 424 kts 319°
2026-04-23 22:29 -6.85203 -80.99674 33996 ft 424 kts 319°
2026-04-23 22:29 -6.80688 -81.03309 33996 ft 424 kts 319°
2026-04-23 22:30 -6.76096 -81.07006 33997 ft 424 kts 319°
2026-04-23 22:30 -6.71506 -81.10700 33997 ft 424 kts 319°
2026-04-23 22:31 -6.66913 -81.14396 33997 ft 424 kts 319°
2026-04-23 22:31 -6.62322 -81.18089 33996 ft 424 kts 319°
2026-04-23 22:32 -6.57739 -81.21774 33996 ft 423 kts 319°
2026-04-23 22:32 -6.53149 -81.25465 33996 ft 423 kts 319°
2026-04-23 22:33 -6.48564 -81.29151 33996 ft 423 kts 319°
2026-04-23 22:33 -6.43981 -81.32834 33997 ft 423 kts 319°
2026-04-23 22:34 -6.39388 -81.36524 33997 ft 423 kts 319°
2026-04-23 22:34 -6.34803 -81.40207 33997 ft 423 kts 319°
2026-04-23 22:35 -6.30216 -81.43890 33996 ft 423 kts 319°
2026-04-23 22:35 -6.25629 -81.47573 33996 ft 423 kts 319°
2026-04-23 22:36 -6.21039 -81.51257 33996 ft 423 kts 319°
2026-04-23 22:36 -6.16452 -81.54938 33996 ft 423 kts 319°
2026-04-23 22:37 -6.11862 -81.58621 33996 ft 423 kts 319°
2026-04-23 22:37 -6.07274 -81.62301 33996 ft 423 kts 319°
2026-04-23 22:38 -6.02688 -81.65979 33996 ft 423 kts 319°
2026-04-23 22:38 -5.98098 -81.69658 33996 ft 423 kts 319°
2026-04-23 22:39 -5.93511 -81.73336 33996 ft 423 kts 319°
2026-04-23 22:39 -5.88921 -81.77014 33997 ft 423 kts 319°
2026-04-23 22:40 -5.84328 -81.80694 33997 ft 423 kts 319°
2026-04-23 22:41 -5.77441 -81.86211 33996 ft 423 kts 319°
2026-04-23 22:41 -5.72850 -81.89877 33997 ft 423 kts 319°
2026-04-23 22:42 -5.68266 -81.93556 33997 ft 423 kts 319°
2026-04-23 22:42 -5.63691 -81.97234 33997 ft 423 kts 319°
2026-04-23 22:43 -5.59114 -82.00918 33996 ft 423 kts 319°
2026-04-23 22:43 -5.54541 -82.04601 33996 ft 423 kts 319°
2026-04-23 22:44 -5.49972 -82.08279 33996 ft 423 kts 319°
2026-04-23 22:44 -5.45395 -82.11965 33996 ft 423 kts 319°
2026-04-23 22:45 -5.40825 -82.15644 33996 ft 423 kts 319°
2026-04-23 22:45 -5.36248 -82.19328 33996 ft 423 kts 319°
2026-04-23 22:46 -5.31676 -82.23007 33997 ft 423 kts 319°
2026-04-23 22:46 -5.27099 -82.26690 33997 ft 423 kts 319°
2026-04-23 22:47 -5.22527 -82.30368 33997 ft 423 kts 319°
2026-04-23 22:47 -5.17952 -82.34048 33996 ft 423 kts 319°
2026-04-23 22:48 -5.13375 -82.37728 33996 ft 423 kts 319°
2026-04-23 22:48 -5.08802 -82.41405 33996 ft 423 kts 319°
2026-04-23 22:49 -5.04224 -82.45084 33996 ft 423 kts 319°
2026-04-23 22:49 -4.99744 -82.48684 33996 ft 423 kts 319°
2026-04-23 22:50 -4.95163 -82.52365 33996 ft 423 kts 319°
2026-04-23 22:50 -4.90587 -82.56042 33997 ft 423 kts 319°
2026-04-23 22:51 -4.86018 -82.59712 33997 ft 422 kts 319°
2026-04-23 22:51 -4.81443 -82.63386 33997 ft 422 kts 319°
2026-04-23 22:52 -4.76871 -82.67057 33997 ft 422 kts 319°
2026-04-23 22:52 -4.72299 -82.70727 33996 ft 422 kts 319°
2026-04-23 22:53 -4.67731 -82.74394 33996 ft 422 kts 319°
2026-04-23 22:53 -4.63155 -82.78066 33996 ft 422 kts 319°
2026-04-23 22:54 -4.58585 -82.81733 33996 ft 422 kts 319°
2026-04-23 22:54 -4.54012 -82.85402 33996 ft 422 kts 319°
2026-04-23 22:55 -4.49440 -82.89069 33996 ft 422 kts 319°
2026-04-23 22:55 -4.44867 -82.92736 33996 ft 422 kts 319°
2026-04-23 22:56 -4.40298 -82.96400 33996 ft 422 kts 319°
2026-04-23 22:56 -4.35725 -83.00067 33996 ft 422 kts 319°
2026-04-23 22:57 -4.31148 -83.03735 33996 ft 422 kts 319°
2026-04-23 22:57 -4.26577 -83.07399 33996 ft 422 kts 319°
2026-04-23 22:58 -4.21999 -83.11067 33996 ft 422 kts 319°
2026-04-23 22:58 -4.17429 -83.14729 33996 ft 422 kts 319°
2026-04-23 22:59 -4.12851 -83.18396 33996 ft 422 kts 319°
2026-04-23 22:59 -4.08279 -83.22058 33997 ft 422 kts 319°
2026-04-23 23:00 -4.03705 -83.25721 33997 ft 422 kts 319°
2026-04-23 23:00 -3.99131 -83.29383 33997 ft 421 kts 319°
2026-04-23 23:01 -3.94563 -83.33041 33996 ft 421 kts 319°
2026-04-23 23:01 -3.89997 -83.36696 33996 ft 421 kts 319°
2026-04-23 23:02 -3.85427 -83.40353 33996 ft 422 kts 319°
2026-04-23 23:02 -3.80861 -83.44007 33996 ft 422 kts 319°
2026-04-23 23:03 -3.76288 -83.47666 33996 ft 422 kts 319°
2026-04-23 23:03 -3.71718 -83.51323 33996 ft 422 kts 319°
2026-04-23 23:04 -3.67148 -83.54978 33996 ft 422 kts 319°
2026-04-23 23:04 -3.62579 -83.58633 33996 ft 422 kts 319°
2026-04-23 23:05 -3.58007 -83.62288 33996 ft 422 kts 319°
2026-04-23 23:05 -3.53435 -83.65944 33996 ft 422 kts 319°
2026-04-23 23:06 -3.48864 -83.69599 33996 ft 422 kts 319°
2026-04-23 23:06 -3.44294 -83.73252 33996 ft 422 kts 319°
2026-04-23 23:07 -3.39695 -83.76875 33996 ft 422 kts 320°
2026-04-23 23:07 -3.35065 -83.80456 33997 ft 422 kts 320°
2026-04-23 23:08 -3.30430 -83.84036 33997 ft 422 kts 320°
2026-04-23 23:08 -3.25790 -83.87616 33996 ft 422 kts 320°
2026-04-23 23:09 -3.21157 -83.91190 33996 ft 422 kts 320°
2026-04-23 23:09 -3.16517 -83.94768 33996 ft 421 kts 320°
2026-04-23 23:10 -3.11891 -83.98336 33996 ft 421 kts 320°
2026-04-23 23:10 -3.07256 -84.01909 33996 ft 421 kts 320°
2026-04-23 23:11 -3.02624 -84.05479 33996 ft 421 kts 320°
2026-04-23 23:11 -2.97994 -84.09047 33997 ft 421 kts 320°
2026-04-23 23:12 -2.93356 -84.12621 33997 ft 421 kts 320°
2026-04-23 23:12 -2.88726 -84.16189 33997 ft 421 kts 320°
2026-04-23 23:13 -2.84093 -84.19759 33996 ft 421 kts 320°
2026-04-23 23:13 -2.79461 -84.23327 33996 ft 421 kts 320°
2026-04-23 23:14 -2.74825 -84.26898 33996 ft 421 kts 320°
2026-04-23 23:14 -2.70194 -84.30465 33996 ft 421 kts 320°
2026-04-23 23:15 -2.65563 -84.34032 33996 ft 421 kts 320°
2026-04-23 23:15 -2.60930 -84.37599 33996 ft 421 kts 320°
2026-04-23 23:16 -2.56296 -84.41167 33997 ft 421 kts 320°
2026-04-23 23:16 -2.51663 -84.44734 33997 ft 421 kts 320°
2026-04-23 23:17 -2.47030 -84.48301 33997 ft 421 kts 320°
2026-04-23 23:17 -2.42398 -84.51866 33997 ft 421 kts 320°
2026-04-23 23:18 -2.37765 -84.55433 33997 ft 421 kts 320°
2026-04-23 23:18 -2.33138 -84.58994 33997 ft 421 kts 320°
2026-04-23 23:19 -2.28501 -84.62562 33996 ft 421 kts 320°
2026-04-23 23:19 -2.23872 -84.66124 33996 ft 421 kts 320°
2026-04-23 23:20 -2.19240 -84.69688 33997 ft 421 kts 320°
2026-04-23 23:20 -2.14613 -84.73249 33997 ft 421 kts 320°
2026-04-23 23:21 -2.09991 -84.76804 33997 ft 421 kts 320°
2026-04-23 23:21 -2.05361 -84.80366 33997 ft 421 kts 320°
2026-04-23 23:22 -2.00732 -84.83926 33997 ft 421 kts 320°
2026-04-23 23:22 -1.96103 -84.87487 33996 ft 421 kts 320°
2026-04-23 23:23 -1.91478 -84.91044 33996 ft 421 kts 320°
2026-04-23 23:23 -1.86848 -84.94604 33996 ft 421 kts 320°
2026-04-23 23:24 -1.82218 -84.98165 33996 ft 421 kts 320°
2026-04-23 23:24 -1.77588 -85.01725 33996 ft 421 kts 320°
2026-04-23 23:25 -1.72961 -85.05282 33996 ft 421 kts 320°
2026-04-23 23:25 -1.68333 -85.08841 33996 ft 421 kts 320°
2026-04-23 23:26 -1.63706 -85.12396 33997 ft 421 kts 320°
2026-04-23 23:26 -1.59076 -85.15956 33997 ft 421 kts 320°
2026-04-23 23:27 -1.54455 -85.19513 33997 ft 421 kts 320°
2026-04-23 23:27 -1.49852 -85.23057 33997 ft 421 kts 320°
2026-04-23 23:28 -1.45239 -85.26609 33996 ft 421 kts 320°
2026-04-23 23:28 -1.40608 -85.30176 33996 ft 420 kts 320°
2026-04-23 23:29 -1.35990 -85.33732 33997 ft 420 kts 320°
2026-04-23 23:29 -1.31373 -85.37288 33997 ft 420 kts 320°
2026-04-23 23:30 -1.26762 -85.40839 33997 ft 420 kts 320°
2026-04-23 23:30 -1.22144 -85.44395 33997 ft 420 kts 320°
2026-04-23 23:31 -1.17517 -85.47958 33996 ft 420 kts 320°
2026-04-23 23:31 -1.12908 -85.51507 33996 ft 420 kts 320°
2026-04-23 23:32 -1.08289 -85.55064 33996 ft 420 kts 320°
2026-04-23 23:32 -1.03673 -85.58619 33996 ft 420 kts 320°
2026-04-23 23:33 -0.99053 -85.62177 33996 ft 420 kts 320°
2026-04-23 23:33 -0.94435 -85.65732 33996 ft 420 kts 320°
2026-04-23 23:34 -0.89820 -85.69285 33996 ft 420 kts 320°
2026-04-23 23:34 -0.85199 -85.72842 33996 ft 420 kts 320°
2026-04-23 23:35 -0.80581 -85.76398 33997 ft 420 kts 320°
2026-04-23 23:35 -0.75962 -85.79953 33997 ft 420 kts 320°
2026-04-23 23:36 -0.71341 -85.83510 33997 ft 420 kts 320°
2026-04-23 23:36 -0.66723 -85.87065 33996 ft 420 kts 320°
2026-04-23 23:37 -0.62106 -85.90619 33996 ft 420 kts 320°
2026-04-23 23:37 -0.57485 -85.94176 33996 ft 420 kts 320°
2026-04-23 23:38 -0.52870 -85.97728 33996 ft 419 kts 320°
2026-04-23 23:38 -0.48258 -86.01278 33997 ft 420 kts 320°
2026-04-23 23:39 -0.43644 -86.04829 33997 ft 420 kts 320°
2026-04-23 23:39 -0.39030 -86.08380 33997 ft 420 kts 320°
2026-04-23 23:40 -0.34417 -86.11931 33997 ft 420 kts 320°
2026-04-23 23:40 -0.29803 -86.15482 33997 ft 420 kts 320°
2026-04-23 23:41 -0.25191 -86.19032 33996 ft 420 kts 320°
2026-04-23 23:41 -0.20579 -86.22581 33996 ft 420 kts 320°
2026-04-23 23:42 -0.15970 -86.26129 33997 ft 420 kts 320°
2026-04-23 23:42 -0.11355 -86.29681 33997 ft 420 kts 320°
2026-04-23 23:43 -0.06746 -86.33229 33996 ft 420 kts 320°
2026-04-23 23:43 -0.02134 -86.36779 33996 ft 420 kts 320°
2026-04-23 23:44 0.02482 -86.40332 33996 ft 420 kts 320°
2026-04-23 23:44 0.07093 -86.43881 33996 ft 420 kts 320°
2026-04-23 23:45 0.11704 -86.47430 33996 ft 420 kts 320°
2026-04-23 23:45 0.16314 -86.50978 33996 ft 420 kts 320°
2026-04-23 23:46 0.20926 -86.54528 33997 ft 420 kts 320°
2026-04-23 23:46 0.25538 -86.58078 33997 ft 420 kts 320°
2026-04-23 23:47 0.30152 -86.61629 33996 ft 420 kts 320°
2026-04-23 23:47 0.34761 -86.65177 33996 ft 419 kts 320°
2026-04-23 23:48 0.39362 -86.68719 33996 ft 419 kts 320°
2026-04-23 23:48 0.43970 -86.72266 33997 ft 419 kts 320°
2026-04-23 23:49 0.50876 -86.77581 33996 ft 419 kts 320°
2026-04-23 23:49 0.55485 -86.81130 33996 ft 419 kts 320°
2026-04-23 23:50 0.60090 -86.84675 33996 ft 419 kts 320°
2026-04-23 23:50 0.64696 -86.88220 33997 ft 419 kts 320°
2026-04-23 23:51 0.69298 -86.91763 33997 ft 419 kts 320°
2026-04-23 23:51 0.73906 -86.95311 33997 ft 419 kts 320°
2026-04-23 23:52 0.78443 -86.98803 33997 ft 419 kts 320°
2026-04-23 23:52 0.83047 -87.02348 33997 ft 419 kts 320°
2026-04-23 23:53 0.87653 -87.05894 33997 ft 419 kts 320°
2026-04-23 23:53 0.92258 -87.09439 33996 ft 419 kts 320°
2026-04-23 23:54 0.96850 -87.12975 33996 ft 419 kts 320°
2026-04-23 23:54 1.01460 -87.16525 33996 ft 419 kts 320°
2026-04-23 23:55 1.06073 -87.20077 33996 ft 419 kts 320°
2026-04-23 23:55 1.10667 -87.23614 33996 ft 419 kts 320°
2026-04-23 23:56 1.15282 -87.27168 33996 ft 419 kts 320°
2026-04-23 23:56 1.19887 -87.30715 33996 ft 419 kts 320°
2026-04-23 23:57 1.24484 -87.34255 33997 ft 418 kts 320°
2026-04-23 23:57 1.29085 -87.37799 33996 ft 418 kts 320°
2026-04-23 23:58 1.33683 -87.41340 33996 ft 418 kts 320°
2026-04-23 23:58 1.38275 -87.44877 33996 ft 418 kts 320°
2026-04-23 23:59 1.42877 -87.48418 33996 ft 418 kts 320°
2026-04-23 23:59 1.47476 -87.51955 33996 ft 418 kts 320°
2026-04-24 00:00 1.52077 -87.55493 33996 ft 418 kts 320°
2026-04-24 00:00 1.56678 -87.59030 33996 ft 418 kts 320°
2026-04-24 00:01 1.61278 -87.62567 33996 ft 418 kts 320°
2026-04-24 00:01 1.65882 -87.66107 33996 ft 418 kts 320°
2026-04-24 00:02 1.70486 -87.69647 33996 ft 418 kts 320°
2026-04-24 00:02 1.75084 -87.73183 33996 ft 418 kts 320°
2026-04-24 00:03 1.79691 -87.76726 33997 ft 418 kts 320°
2026-04-24 00:03 1.84289 -87.80262 33997 ft 418 kts 320°
2026-04-24 00:04 1.88889 -87.83800 33997 ft 418 kts 320°
2026-04-24 00:04 1.93414 -87.87280 33996 ft 418 kts 320°
2026-04-24 00:05 1.98016 -87.90820 33996 ft 418 kts 320°
2026-04-24 00:05 2.02615 -87.94359 33996 ft 418 kts 320°
2026-04-24 00:06 2.07211 -87.97894 33996 ft 418 kts 320°
2026-04-24 00:06 2.11803 -88.01427 33996 ft 418 kts 320°
2026-04-24 00:07 2.16400 -88.04964 33996 ft 418 kts 320°
2026-04-24 00:07 2.20995 -88.08500 33996 ft 418 kts 320°
2026-04-24 00:08 2.25591 -88.12036 33996 ft 418 kts 320°
2026-04-24 00:08 2.30186 -88.15573 33996 ft 418 kts 320°
2026-04-24 00:09 2.34781 -88.19110 33996 ft 418 kts 320°
2026-04-24 00:09 2.39372 -88.22643 33997 ft 418 kts 320°
2026-04-24 00:10 2.43930 -88.26152 33997 ft 418 kts 320°
2026-04-24 00:10 2.48552 -88.29711 33997 ft 418 kts 320°
2026-04-24 00:11 2.53151 -88.33252 33997 ft 418 kts 320°
2026-04-24 00:11 2.57740 -88.36785 33996 ft 418 kts 320°
2026-04-24 00:12 2.62343 -88.40330 33996 ft 418 kts 320°
2026-04-24 00:12 2.66935 -88.43866 33996 ft 418 kts 320°
2026-04-24 00:13 2.71529 -88.47405 33996 ft 418 kts 320°
2026-04-24 00:13 2.76117 -88.50939 33997 ft 417 kts 320°
2026-04-24 00:14 2.80702 -88.54471 33996 ft 417 kts 320°
2026-04-24 00:14 2.85291 -88.58007 33996 ft 417 kts 320°
2026-04-24 00:15 2.89875 -88.61539 33996 ft 417 kts 320°
2026-04-24 00:15 2.94464 -88.65075 33996 ft 417 kts 320°
2026-04-24 00:16 2.99046 -88.68606 33996 ft 417 kts 320°
2026-04-24 00:16 3.03634 -88.72143 33996 ft 417 kts 320°
2026-04-24 00:17 3.08223 -88.75681 33996 ft 417 kts 320°
2026-04-24 00:17 3.12807 -88.79214 33996 ft 417 kts 320°
2026-04-24 00:18 3.17396 -88.82753 33996 ft 417 kts 320°
2026-04-24 00:18 3.21981 -88.86288 33996 ft 417 kts 320°
2026-04-24 00:19 3.26564 -88.89823 33996 ft 417 kts 320°
2026-04-24 00:19 3.31150 -88.93360 33996 ft 417 kts 320°
2026-04-24 00:20 3.35737 -88.96898 33997 ft 417 kts 320°
2026-04-24 00:20 3.40323 -89.00437 33997 ft 417 kts 320°
2026-04-24 00:21 3.44901 -89.03969 33997 ft 417 kts 320°
2026-04-24 00:21 3.49482 -89.07504 33996 ft 417 kts 320°
2026-04-24 00:22 3.54060 -89.11037 33996 ft 417 kts 320°
2026-04-24 00:22 3.58635 -89.14568 33996 ft 417 kts 320°
2026-04-24 00:23 3.63213 -89.18102 33996 ft 417 kts 320°
2026-04-24 00:23 3.67792 -89.21638 33996 ft 417 kts 320°
2026-04-24 00:24 3.72366 -89.25170 33996 ft 417 kts 320°
2026-04-24 00:24 3.76949 -89.28709 33996 ft 417 kts 320°
2026-04-24 00:25 3.81525 -89.32243 33997 ft 417 kts 320°
2026-04-24 00:25 3.86101 -89.35778 33997 ft 417 kts 320°
2026-04-24 00:26 3.90679 -89.39315 33997 ft 417 kts 320°
2026-04-24 00:26 3.95255 -89.42851 33996 ft 417 kts 320°
2026-04-24 00:27 3.99832 -89.46388 33996 ft 417 kts 320°
2026-04-24 00:27 4.04410 -89.49926 33996 ft 417 kts 320°
2026-04-24 00:28 4.08987 -89.53465 33996 ft 417 kts 320°
2026-04-24 00:28 4.13555 -89.56997 33996 ft 416 kts 320°
2026-04-24 00:29 4.18128 -89.60532 33996 ft 416 kts 320°
2026-04-24 00:29 4.22696 -89.64066 33996 ft 416 kts 320°
2026-04-24 00:30 4.27267 -89.67601 33997 ft 416 kts 320°
2026-04-24 00:30 4.31830 -89.71131 33997 ft 416 kts 320°
2026-04-24 00:31 4.36404 -89.74670 33997 ft 416 kts 320°
2026-04-24 00:31 4.40970 -89.78204 33997 ft 416 kts 320°
2026-04-24 00:32 4.45538 -89.81739 33997 ft 416 kts 320°
2026-04-24 00:32 4.50106 -89.85275 33996 ft 416 kts 320°
2026-04-24 00:33 4.54676 -89.88813 33996 ft 416 kts 320°
2026-04-24 00:33 4.59241 -89.92348 33996 ft 416 kts 320°
2026-04-24 00:34 4.63812 -89.95888 33996 ft 416 kts 320°
2026-04-24 00:34 4.68380 -89.99426 33996 ft 416 kts 320°
2026-04-24 00:35 4.72943 -90.02962 33996 ft 416 kts 320°
2026-04-24 00:35 4.77516 -90.06505 33996 ft 416 kts 320°
2026-04-24 00:36 4.81935 -90.09930 33997 ft 415 kts 320°
2026-04-24 00:36 4.86496 -90.13466 33997 ft 415 kts 320°
2026-04-24 00:37 4.91057 -90.17001 33997 ft 415 kts 320°
2026-04-24 00:37 4.95617 -90.20537 33996 ft 415 kts 320°
2026-04-24 00:38 5.00176 -90.24073 33996 ft 415 kts 320°
2026-04-24 00:38 5.04732 -90.27607 33996 ft 415 kts 320°
2026-04-24 00:39 5.09295 -90.31147 33996 ft 415 kts 320°
2026-04-24 00:39 5.13855 -90.34686 33997 ft 415 kts 320°
2026-04-24 00:40 5.18415 -90.38225 33996 ft 415 kts 320°
2026-04-24 00:40 5.22974 -90.41763 33997 ft 415 kts 320°
2026-04-24 00:41 5.27535 -90.45305 33997 ft 415 kts 320°
2026-04-24 00:41 5.32092 -90.48843 33996 ft 415 kts 320°
2026-04-24 00:42 5.36648 -90.52382 33996 ft 415 kts 320°
2026-04-24 00:42 5.41206 -90.55923 33996 ft 415 kts 320°
2026-04-24 00:43 5.45763 -90.59463 33996 ft 415 kts 320°
2026-04-24 00:43 5.50316 -90.63004 33996 ft 415 kts 319°
2026-04-24 00:44 5.54861 -90.66551 33997 ft 415 kts 319°
2026-04-24 00:44 5.59408 -90.70090 33997 ft 415 kts 320°
2026-04-24 00:45 5.63960 -90.73630 33997 ft 415 kts 320°
2026-04-24 00:45 5.68510 -90.77167 33997 ft 415 kts 320°
2026-04-24 00:46 5.73061 -90.80705 33997 ft 415 kts 320°
2026-04-24 00:46 5.77613 -90.84243 33997 ft 415 kts 320°
2026-04-24 00:47 5.82161 -90.87780 33997 ft 415 kts 320°
2026-04-24 00:47 5.86711 -90.91318 33997 ft 415 kts 320°
2026-04-24 00:48 5.91262 -90.94857 33996 ft 415 kts 320°
2026-04-24 00:48 5.95813 -90.98398 33996 ft 415 kts 320°
2026-04-24 00:49 6.00361 -91.01936 33996 ft 415 kts 320°
2026-04-24 00:49 6.04908 -91.05475 33996 ft 415 kts 320°
2026-04-24 00:50 6.09455 -91.09015 33996 ft 415 kts 320°
2026-04-24 00:50 6.13996 -91.12550 33996 ft 415 kts 320°
2026-04-24 00:51 6.18547 -91.16094 33996 ft 414 kts 320°
2026-04-24 00:51 6.23086 -91.19630 33996 ft 414 kts 320°
2026-04-24 00:52 6.27627 -91.23168 33996 ft 414 kts 320°
2026-04-24 00:52 6.32172 -91.26710 33997 ft 414 kts 319°
2026-04-24 00:53 6.36712 -91.30249 33997 ft 414 kts 319°
2026-04-24 00:53 6.41250 -91.33786 33997 ft 414 kts 319°
2026-04-24 00:54 6.45795 -91.37331 33997 ft 414 kts 319°
2026-04-24 00:54 6.50331 -91.40869 33996 ft 414 kts 319°
2026-04-24 00:55 6.54870 -91.44410 33996 ft 414 kts 319°
2026-04-24 00:55 6.59413 -91.47955 33996 ft 414 kts 319°
2026-04-24 00:56 6.63952 -91.51499 33996 ft 414 kts 319°
2026-04-24 00:56 6.68488 -91.55040 33997 ft 414 kts 319°
2026-04-24 00:57 6.72976 -91.58545 33997 ft 414 kts 319°
2026-04-24 00:58 6.79783 -91.63862 33996 ft 414 kts 319°
2026-04-24 00:58 6.84320 -91.67408 33996 ft 414 kts 319°
2026-04-24 00:59 6.88850 -91.70948 33996 ft 413 kts 319°
2026-04-24 00:59 6.93390 -91.74497 33997 ft 414 kts 319°
2026-04-24 01:00 6.97921 -91.78041 33997 ft 413 kts 319°
2026-04-24 01:00 7.02443 -91.81577 33997 ft 414 kts 319°
2026-04-24 01:01 7.06982 -91.85129 33997 ft 413 kts 319°
2026-04-24 01:01 7.11506 -91.88669 33996 ft 413 kts 319°
2026-04-24 01:02 7.16035 -91.92214 33996 ft 413 kts 319°
2026-04-24 01:02 7.21317 -91.96350 33996 ft 413 kts 319°
2026-04-24 01:03 7.25094 -91.99308 33996 ft 413 kts 319°
2026-04-24 01:03 7.29622 -92.02855 33996 ft 413 kts 319°
2026-04-24 01:04 7.34150 -92.06403 33996 ft 413 kts 319°
2026-04-24 01:04 7.38677 -92.09951 33996 ft 413 kts 319°
2026-04-24 01:05 7.43203 -92.13500 33996 ft 413 kts 319°
2026-04-24 01:05 7.47726 -92.17047 33996 ft 413 kts 319°
2026-04-24 01:06 7.52248 -92.20594 33996 ft 413 kts 319°
2026-04-24 01:06 7.56771 -92.24143 33996 ft 413 kts 319°
2026-04-24 01:07 7.61290 -92.27690 33996 ft 413 kts 319°
2026-04-24 01:07 7.65806 -92.31235 33996 ft 413 kts 319°
2026-04-24 01:08 7.70326 -92.34785 33996 ft 413 kts 319°
2026-04-24 01:08 7.74845 -92.38335 33996 ft 413 kts 319°
2026-04-24 01:09 7.79364 -92.41884 33996 ft 413 kts 319°
2026-04-24 01:09 7.83882 -92.45436 33996 ft 413 kts 319°
2026-04-24 01:10 7.89153 -92.49580 33997 ft 413 kts 319°
2026-04-24 01:10 7.92920 -92.52542 33997 ft 413 kts 319°
2026-04-24 01:11 7.97437 -92.56095 33997 ft 413 kts 319°
2026-04-24 01:11 8.01951 -92.59646 33997 ft 413 kts 319°
2026-04-24 01:12 8.06470 -92.63203 33997 ft 413 kts 319°
2026-04-24 01:12 8.10986 -92.66759 33996 ft 413 kts 319°
2026-04-24 01:13 8.15499 -92.70313 33997 ft 413 kts 319°
2026-04-24 01:13 8.20014 -92.73870 33997 ft 413 kts 319°
2026-04-24 01:14 8.24529 -92.77427 33997 ft 413 kts 319°
2026-04-24 01:14 8.29038 -92.80981 33997 ft 412 kts 319°
2026-04-24 01:15 8.33542 -92.84532 33997 ft 412 kts 319°
2026-04-24 01:15 8.38049 -92.88087 33997 ft 412 kts 319°
2026-04-24 01:16 8.42554 -92.91641 33997 ft 412 kts 319°
2026-04-24 01:16 8.47060 -92.95197 33997 ft 412 kts 319°
2026-04-24 01:17 8.51563 -92.98752 33997 ft 412 kts 319°
2026-04-24 01:17 8.56065 -93.02307 33996 ft 412 kts 319°
2026-04-24 01:18 8.60568 -93.05863 33996 ft 412 kts 319°
2026-04-24 01:18 8.65072 -93.09422 33996 ft 412 kts 319°
2026-04-24 01:19 8.69577 -93.12982 33996 ft 412 kts 319°
2026-04-24 01:19 8.74081 -93.16543 33997 ft 412 kts 319°
2026-04-24 01:20 8.78406 -93.19964 33997 ft 412 kts 319°
2026-04-24 01:20 8.82908 -93.23525 33997 ft 412 kts 319°
2026-04-24 01:21 8.87413 -93.27090 33997 ft 412 kts 319°
2026-04-24 01:21 8.91919 -93.30657 33997 ft 412 kts 319°
2026-04-24 01:22 8.96419 -93.34220 33997 ft 412 kts 319°
2026-04-24 01:22 9.00917 -93.37784 33997 ft 411 kts 319°
2026-04-24 01:23 9.05412 -93.41345 33996 ft 411 kts 319°
2026-04-24 01:23 9.09904 -93.44906 33996 ft 411 kts 319°
2026-04-24 01:24 9.14396 -93.48467 33996 ft 411 kts 319°
2026-04-24 01:24 9.18893 -93.52034 33996 ft 412 kts 319°
2026-04-24 01:25 9.23385 -93.55598 33996 ft 412 kts 319°
2026-04-24 01:25 9.27879 -93.59165 33997 ft 412 kts 319°
2026-04-24 01:26 9.32372 -93.62732 33996 ft 411 kts 319°
2026-04-24 01:26 9.36863 -93.66299 33996 ft 411 kts 319°
2026-04-24 01:27 9.41303 -93.69826 33996 ft 411 kts 319°
2026-04-24 01:27 9.45795 -93.73397 33997 ft 411 kts 319°
2026-04-24 01:28 9.50284 -93.76965 33996 ft 411 kts 319°
2026-04-24 01:28 9.54773 -93.80536 33997 ft 411 kts 319°
2026-04-24 01:29 9.59269 -93.84112 33996 ft 411 kts 319°
2026-04-24 01:29 9.63708 -93.87644 33996 ft 411 kts 319°
2026-04-24 01:30 9.68198 -93.91219 33997 ft 411 kts 319°
2026-04-24 01:30 9.72670 -93.94783 33997 ft 411 kts 319°
2026-04-24 01:31 9.77132 -93.98376 33997 ft 411 kts 319°
2026-04-24 01:31 9.81603 -94.01960 33996 ft 411 kts 319°
2026-04-24 01:32 9.86086 -94.05546 33996 ft 411 kts 319°
2026-04-24 01:32 9.90567 -94.09126 33997 ft 411 kts 319°
2026-04-24 01:33 9.95038 -94.12698 33997 ft 411 kts 319°
2026-04-24 01:33 9.99526 -94.16283 33997 ft 411 kts 319°
2026-04-24 01:34 10.04005 -94.19861 33996 ft 411 kts 319°
2026-04-24 01:34 10.08485 -94.23441 33996 ft 411 kts 319°
2026-04-24 01:35 10.12957 -94.27016 33996 ft 411 kts 319°
2026-04-24 01:35 10.17432 -94.30595 33996 ft 411 kts 319°
2026-04-24 01:36 10.21917 -94.34182 33997 ft 411 kts 319°
2026-04-24 01:36 10.26390 -94.37762 33997 ft 411 kts 319°
2026-04-24 01:37 10.30868 -94.41346 33996 ft 411 kts 319°
2026-04-24 01:37 10.35344 -94.44931 33996 ft 411 kts 319°
2026-04-24 01:38 10.39820 -94.48517 33996 ft 411 kts 319°
2026-04-24 01:38 10.44287 -94.52097 33996 ft 410 kts 319°
2026-04-24 01:39 10.48763 -94.55685 33996 ft 410 kts 319°
2026-04-24 01:39 10.53232 -94.59269 33997 ft 410 kts 319°
2026-04-24 01:40 10.57699 -94.62854 33997 ft 410 kts 319°
2026-04-24 01:40 10.62161 -94.66435 33996 ft 410 kts 319°
2026-04-24 01:41 10.66630 -94.70024 33996 ft 410 kts 319°
2026-04-24 01:41 10.71096 -94.73611 33996 ft 410 kts 319°
2026-04-24 01:42 10.75572 -94.77207 33997 ft 410 kts 319°
2026-04-24 01:42 10.80042 -94.80801 33997 ft 410 kts 319°
2026-04-24 01:43 10.84507 -94.84392 33996 ft 410 kts 319°
2026-04-24 01:43 10.88974 -94.87986 33996 ft 410 kts 319°
2026-04-24 01:44 10.93438 -94.91578 33996 ft 410 kts 319°
2026-04-24 01:44 10.97903 -94.95173 33997 ft 410 kts 319°
2026-04-24 01:45 11.02368 -94.98769 33996 ft 410 kts 319°
2026-04-24 01:45 11.06832 -95.02367 33996 ft 410 kts 319°
2026-04-24 01:46 11.11294 -95.05963 33997 ft 410 kts 319°
2026-04-24 01:46 11.15740 -95.09549 33996 ft 410 kts 319°
2026-04-24 01:47 11.20195 -95.13143 33996 ft 410 kts 319°
2026-04-24 01:47 11.24658 -95.16744 33996 ft 410 kts 319°
2026-04-24 01:48 11.29113 -95.20341 33997 ft 410 kts 319°
2026-04-24 01:48 11.33567 -95.23938 33996 ft 410 kts 319°
2026-04-24 01:49 11.38011 -95.27530 33996 ft 410 kts 319°
2026-04-24 01:49 11.42463 -95.31128 33996 ft 410 kts 319°
2026-04-24 01:50 11.46915 -95.34729 33996 ft 409 kts 319°
2026-04-24 01:50 11.51367 -95.38331 33996 ft 410 kts 319°
2026-04-24 01:51 11.55824 -95.41938 33997 ft 410 kts 319°
2026-04-24 01:51 11.60271 -95.45539 33996 ft 410 kts 319°
2026-04-24 01:52 11.64724 -95.49146 33996 ft 409 kts 319°
2026-04-24 01:52 11.69176 -95.52754 33996 ft 409 kts 319°
2026-04-24 01:53 11.73624 -95.56360 33996 ft 409 kts 319°
2026-04-24 01:53 11.78073 -95.59969 33996 ft 409 kts 319°
2026-04-24 01:54 11.82513 -95.63572 33997 ft 409 kts 319°
2026-04-24 01:54 11.86953 -95.67176 33996 ft 409 kts 319°
2026-04-24 01:55 11.91396 -95.70784 33996 ft 409 kts 319°
2026-04-24 01:55 11.95835 -95.74390 33996 ft 409 kts 319°
2026-04-24 01:56 12.00285 -95.78008 33996 ft 409 kts 319°
2026-04-24 01:56 12.04717 -95.81611 33997 ft 409 kts 319°
2026-04-24 01:57 12.09166 -95.85231 33997 ft 409 kts 319°
2026-04-24 01:57 12.13595 -95.88835 33996 ft 409 kts 319°
2026-04-24 01:58 12.18034 -95.92450 33996 ft 409 kts 319°
2026-04-24 01:58 12.22473 -95.96066 33996 ft 409 kts 319°
2026-04-24 01:59 12.26920 -95.99690 33996 ft 409 kts 319°
2026-04-24 01:59 12.31348 -96.03301 33997 ft 409 kts 319°
2026-04-24 02:00 12.35796 -96.06928 33997 ft 409 kts 319°
2026-04-24 02:00 12.40222 -96.10540 33996 ft 409 kts 319°
2026-04-24 02:01 12.44668 -96.14170 33997 ft 409 kts 319°
2026-04-24 02:01 12.49105 -96.17794 33997 ft 409 kts 319°
2026-04-24 02:02 12.53543 -96.21420 33996 ft 409 kts 319°
2026-04-24 02:02 12.57975 -96.25043 33996 ft 409 kts 319°
2026-04-24 02:03 12.64597 -96.30502 33997 ft 409 kts 318°
2026-04-24 02:03 12.69016 -96.34139 33996 ft 408 kts 319°
2026-04-24 02:04 12.73436 -96.37768 33996 ft 408 kts 319°
2026-04-24 02:04 12.77850 -96.41389 33997 ft 408 kts 319°
2026-04-24 02:05 12.82273 -96.45017 33997 ft 408 kts 319°
2026-04-24 02:05 12.86706 -96.48653 33997 ft 408 kts 319°
2026-04-24 02:06 12.91118 -96.52272 33996 ft 408 kts 319°
2026-04-24 02:06 12.95548 -96.55909 33996 ft 408 kts 319°
2026-04-24 02:07 12.99964 -96.59535 33996 ft 408 kts 319°
2026-04-24 02:07 13.04382 -96.63164 33996 ft 408 kts 319°
2026-04-24 02:08 13.08816 -96.66808 33996 ft 408 kts 319°
2026-04-24 02:08 13.13228 -96.70436 33996 ft 408 kts 319°
2026-04-24 02:09 13.17656 -96.74080 33996 ft 408 kts 319°
2026-04-24 02:09 13.22068 -96.77711 33996 ft 408 kts 319°
2026-04-24 02:10 13.26493 -96.81355 33996 ft 408 kts 319°
2026-04-24 02:10 13.30896 -96.84981 33997 ft 408 kts 319°
2026-04-24 02:11 13.35318 -96.88626 33997 ft 408 kts 319°
2026-04-24 02:11 13.39720 -96.92257 33997 ft 408 kts 319°
2026-04-24 02:12 13.44131 -96.95896 33996 ft 408 kts 319°
2026-04-24 02:12 13.48542 -96.99537 33996 ft 408 kts 319°
2026-04-24 02:13 13.52949 -97.03176 33996 ft 408 kts 319°
2026-04-24 02:13 13.57360 -97.06821 33996 ft 408 kts 319°
2026-04-24 02:14 13.61778 -97.10473 33996 ft 408 kts 319°
2026-04-24 02:14 13.66178 -97.14112 33996 ft 408 kts 319°
2026-04-24 02:15 13.70594 -97.17767 33997 ft 408 kts 318°
2026-04-24 02:15 13.74994 -97.21413 33996 ft 408 kts 319°
2026-04-24 02:16 13.79409 -97.25059 33996 ft 408 kts 319°
2026-04-24 02:16 13.83824 -97.28701 33997 ft 408 kts 319°
2026-04-24 02:17 13.88235 -97.32338 33996 ft 408 kts 319°
2026-04-24 02:17 13.92652 -97.35981 33996 ft 407 kts 319°
2026-04-24 02:18 13.97058 -97.39615 33997 ft 407 kts 319°
2026-04-24 02:18 14.01465 -97.43252 33996 ft 407 kts 319°
2026-04-24 02:19 14.05868 -97.46888 33996 ft 407 kts 319°
2026-04-24 02:19 14.10272 -97.50525 33996 ft 407 kts 319°
2026-04-24 02:20 14.14677 -97.54166 33996 ft 407 kts 319°
2026-04-24 02:20 14.19088 -97.57812 33997 ft 407 kts 319°
2026-04-24 02:21 14.23494 -97.61457 33996 ft 407 kts 319°
2026-04-24 02:21 14.27898 -97.65103 33996 ft 407 kts 319°
2026-04-24 02:22 14.32304 -97.68751 33996 ft 407 kts 319°
2026-04-24 02:22 14.36711 -97.72402 33997 ft 407 kts 319°
2026-04-24 02:23 14.41116 -97.76054 33997 ft 407 kts 319°
2026-04-24 02:23 14.45513 -97.79701 33997 ft 407 kts 319°
2026-04-24 02:24 14.49915 -97.83353 33997 ft 407 kts 319°
2026-04-24 02:24 14.54314 -97.87006 33996 ft 407 kts 319°
2026-04-24 02:25 14.58711 -97.90658 33996 ft 407 kts 318°
2026-04-24 02:25 14.63107 -97.94312 33997 ft 407 kts 318°
2026-04-24 02:26 14.67501 -97.97966 33997 ft 406 kts 318°
2026-04-24 02:26 14.71896 -98.01622 33996 ft 407 kts 318°
2026-04-24 02:27 14.76288 -98.05279 33996 ft 406 kts 318°
2026-04-24 02:27 14.80611 -98.08879 33996 ft 406 kts 318°
2026-04-24 02:28 14.85002 -98.12538 33996 ft 406 kts 318°
2026-04-24 02:28 14.89392 -98.16199 33996 ft 406 kts 318°
2026-04-24 02:29 14.93779 -98.19859 33996 ft 406 kts 318°
2026-04-24 02:29 14.98168 -98.23522 33996 ft 407 kts 318°
2026-04-24 02:30 15.02559 -98.27189 33996 ft 407 kts 318°
2026-04-24 02:30 15.06948 -98.30856 33996 ft 407 kts 318°
2026-04-24 02:31 15.11336 -98.34525 33997 ft 407 kts 318°
2026-04-24 02:31 15.15724 -98.38195 33996 ft 407 kts 318°
2026-04-24 02:32 15.20109 -98.41866 33996 ft 407 kts 318°
2026-04-24 02:32 15.24492 -98.45536 33996 ft 407 kts 318°
2026-04-24 02:33 15.28885 -98.49217 33996 ft 406 kts 318°
2026-04-24 02:33 15.33262 -98.52886 33996 ft 406 kts 318°
2026-04-24 02:34 15.37643 -98.56561 33997 ft 406 kts 318°
2026-04-24 02:34 15.42020 -98.60234 33996 ft 406 kts 318°
2026-04-24 02:35 15.46281 -98.63812 33996 ft 406 kts 318°
2026-04-24 02:35 15.50656 -98.67488 33997 ft 406 kts 318°
2026-04-24 02:36 15.55028 -98.71164 33997 ft 406 kts 318°
2026-04-24 02:36 15.59412 -98.74851 33996 ft 406 kts 318°
2026-04-24 02:37 15.63778 -98.78526 33996 ft 406 kts 318°
2026-04-24 02:37 15.68151 -98.82208 33997 ft 406 kts 318°
2026-04-24 02:38 15.72527 -98.85895 33996 ft 406 kts 318°
2026-04-24 02:38 15.76904 -98.89585 33996 ft 406 kts 318°
2026-04-24 02:39 15.81272 -98.93270 33997 ft 406 kts 318°
2026-04-24 02:39 15.85645 -98.96961 33996 ft 406 kts 318°
2026-04-24 02:40 15.90016 -99.00652 33996 ft 406 kts 318°
2026-04-24 02:40 15.94386 -99.04345 33997 ft 406 kts 318°
2026-04-24 02:41 15.98752 -99.08036 33997 ft 406 kts 318°
2026-04-24 02:41 16.03118 -99.11730 33997 ft 406 kts 318°
2026-04-24 02:42 16.07483 -99.15425 33997 ft 405 kts 318°
2026-04-24 02:42 16.11815 -99.19156 33997 ft 405 kts 317°
2026-04-24 02:43 16.16113 -99.22926 33996 ft 405 kts 317°
2026-04-24 02:43 16.20409 -99.26688 33996 ft 405 kts 317°
2026-04-24 02:44 16.24705 -99.30450 33996 ft 405 kts 317°
2026-04-24 02:44 16.29003 -99.34213 33997 ft 405 kts 317°
2026-04-24 02:45 16.33300 -99.37976 33997 ft 405 kts 317°
2026-04-24 02:45 16.37597 -99.41743 33997 ft 405 kts 317°
2026-04-24 02:46 16.41896 -99.45512 33996 ft 405 kts 317°
2026-04-24 02:46 16.46194 -99.49283 33996 ft 405 kts 317°
2026-04-24 02:47 16.50493 -99.53057 33996 ft 405 kts 317°
2026-04-24 02:47 16.54786 -99.56827 33996 ft 405 kts 317°
2026-04-24 02:48 16.59083 -99.60604 33996 ft 405 kts 317°
2026-04-24 02:48 16.63375 -99.64379 33996 ft 405 kts 317°
2026-04-24 02:49 16.67670 -99.68158 33996 ft 405 kts 317°
2026-04-24 02:49 16.71963 -99.71938 33996 ft 405 kts 317°
2026-04-24 02:50 16.76274 -99.75695 33997 ft 404 kts 318°
2026-04-24 02:50 16.80607 -99.79409 33997 ft 405 kts 318°
2026-04-24 02:51 16.84950 -99.83120 33996 ft 405 kts 318°
2026-04-24 02:51 16.89299 -99.86830 33996 ft 405 kts 318°
2026-04-24 02:52 16.93605 -99.90503 33996 ft 405 kts 318°
2026-04-24 02:52 16.97952 -99.94210 33996 ft 405 kts 318°
2026-04-24 02:53 17.02303 -99.97923 33997 ft 405 kts 318°
2026-04-24 02:53 17.06652 -100.01636 33997 ft 405 kts 318°
2026-04-24 02:54 17.11003 -100.05353 33997 ft 405 kts 318°
2026-04-24 02:54 17.15350 -100.09068 33996 ft 405 kts 318°
2026-04-24 02:55 17.19700 -100.12789 33996 ft 405 kts 318°
2026-04-24 02:55 17.24045 -100.16507 33997 ft 405 kts 318°
2026-04-24 02:56 17.28388 -100.20233 33996 ft 404 kts 318°
2026-04-24 02:56 17.32729 -100.23953 33996 ft 405 kts 318°
2026-04-24 02:57 17.37071 -100.27673 33996 ft 405 kts 318°
2026-04-24 02:57 17.41413 -100.31399 33997 ft 404 kts 318°
2026-04-24 02:58 17.45755 -100.35128 33996 ft 404 kts 318°
2026-04-24 02:58 17.50089 -100.38852 33997 ft 404 kts 318°
2026-04-24 02:59 17.54421 -100.42576 33996 ft 404 kts 318°
2026-04-24 02:59 17.58756 -100.46305 33996 ft 404 kts 318°
2026-04-24 03:00 17.63087 -100.50032 33996 ft 404 kts 318°
2026-04-24 03:00 17.67420 -100.53764 33996 ft 404 kts 318°
2026-04-24 03:01 17.71756 -100.57500 33996 ft 404 kts 318°
2026-04-24 03:01 17.76076 -100.61229 33996 ft 404 kts 318°
2026-04-24 03:02 17.80416 -100.64980 33996 ft 404 kts 318°
2026-04-24 03:02 17.84747 -100.68721 33996 ft 404 kts 318°
2026-04-24 03:03 17.89077 -100.72463 33997 ft 404 kts 318°
2026-04-24 03:03 17.93405 -100.76205 33996 ft 404 kts 318°
2026-04-24 03:04 17.97731 -100.79946 33996 ft 404 kts 318°
2026-04-24 03:04 18.02057 -100.83688 33996 ft 404 kts 318°
2026-04-24 03:05 18.06383 -100.87432 33996 ft 404 kts 318°
2026-04-24 03:05 18.10708 -100.91181 33997 ft 404 kts 318°
2026-04-24 03:06 18.15028 -100.94929 33996 ft 403 kts 318°
2026-04-24 03:06 18.19342 -100.98674 33996 ft 403 kts 317°
2026-04-24 03:07 18.23653 -101.02419 33996 ft 403 kts 317°
2026-04-24 03:07 18.27970 -101.06171 33996 ft 403 kts 317°
2026-04-24 03:08 18.34443 -101.11800 33996 ft 403 kts 317°
2026-04-24 03:09 18.38756 -101.15555 33997 ft 403 kts 317°
2026-04-24 03:09 18.43071 -101.19313 33996 ft 403 kts 317°
2026-04-24 03:10 18.47384 -101.23072 33996 ft 403 kts 317°
2026-04-24 03:10 18.51695 -101.26833 33997 ft 403 kts 317°
2026-04-24 03:11 18.55997 -101.30598 33997 ft 403 kts 317°
2026-04-24 03:11 18.60306 -101.34367 33996 ft 403 kts 317°
2026-04-24 03:12 18.64619 -101.38138 33996 ft 403 kts 317°
2026-04-24 03:12 18.68925 -101.41905 33996 ft 403 kts 317°
2026-04-24 03:13 18.73224 -101.45667 33997 ft 403 kts 317°
2026-04-24 03:13 18.77542 -101.49448 33996 ft 403 kts 317°
2026-04-24 03:14 18.81848 -101.53222 33996 ft 403 kts 317°
2026-04-24 03:14 18.86154 -101.56997 33997 ft 403 kts 317°
2026-04-24 03:15 18.90454 -101.60770 33997 ft 403 kts 317°
2026-04-24 03:15 18.94753 -101.64544 33996 ft 403 kts 317°
2026-04-24 03:16 18.99050 -101.68320 33996 ft 403 kts 317°
2026-04-24 03:16 19.03348 -101.72098 33996 ft 403 kts 317°
2026-04-24 03:17 19.07639 -101.75874 33996 ft 403 kts 317°
2026-04-24 03:17 19.11933 -101.79655 33997 ft 403 kts 317°
2026-04-24 03:18 19.16229 -101.83439 33996 ft 403 kts 317°
2026-04-24 03:18 19.20520 -101.87223 33996 ft 403 kts 317°
2026-04-24 03:19 19.24812 -101.91010 33997 ft 403 kts 317°
2026-04-24 03:19 19.29103 -101.94799 33996 ft 403 kts 317°
2026-04-24 03:20 19.33390 -101.98586 33996 ft 403 kts 317°
2026-04-24 03:20 19.37659 -102.02408 33996 ft 403 kts 315°
2026-04-24 03:21 19.41634 -102.06548 33997 ft 401 kts 312°
2026-04-24 03:21 19.45516 -102.10773 33997 ft 401 kts 311°
2026-04-24 03:22 19.49360 -102.15033 33996 ft 401 kts 311°
2026-04-24 03:22 19.53199 -102.19305 33996 ft 400 kts 311°
2026-04-24 03:23 19.57019 -102.23565 33996 ft 400 kts 311°
2026-04-24 03:23 19.60848 -102.27840 33996 ft 400 kts 311°
2026-04-24 03:24 19.64667 -102.32110 33996 ft 400 kts 311°
2026-04-24 03:24 19.68490 -102.36389 33996 ft 400 kts 311°
2026-04-24 03:25 19.72307 -102.40664 33997 ft 400 kts 311°
2026-04-24 03:25 19.76124 -102.44942 33997 ft 400 kts 311°
2026-04-24 03:26 19.79939 -102.49222 33997 ft 400 kts 311°
2026-04-24 03:26 19.83745 -102.53508 33996 ft 400 kts 311°
2026-04-24 03:27 19.87548 -102.57791 33994 ft 400 kts 311°
2026-04-24 03:27 19.89481 -102.59966 34002 ft 412 kts 313°
2026-04-24 03:27 19.91469 -102.62205 34006 ft 421 kts 313°
2026-04-24 03:28 19.95508 -102.66753 34000 ft 426 kts 313°
2026-04-24 03:28 19.99573 -102.71333 34001 ft 426 kts 313°
2026-04-24 03:29 20.03626 -102.75902 34001 ft 426 kts 313°
2026-04-24 03:29 20.06984 -102.81045 34002 ft 426 kts 299°
2026-04-24 03:30 20.09956 -102.87654 34001 ft 426 kts 291°
2026-04-24 03:30 20.11691 -102.92545 34001 ft 425 kts 290°
2026-04-24 03:31 20.13807 -102.98406 34001 ft 425 kts 291°
2026-04-24 03:31 20.15951 -103.04250 34001 ft 425 kts 291°
2026-04-24 03:32 20.18103 -103.10088 34001 ft 425 kts 291°
2026-04-24 03:32 20.20261 -103.15927 34001 ft 425 kts 291°
2026-04-24 03:33 20.22420 -103.21767 34001 ft 425 kts 291°
2026-04-24 03:33 20.23485 -103.24649 33993 ft 411 kts 291°
2026-04-24 03:33 20.24518 -103.27444 33994 ft 405 kts 291°
2026-04-24 03:34 20.26572 -103.33010 34000 ft 405 kts 291°
2026-04-24 03:34 20.28626 -103.38577 34001 ft 405 kts 291°
2026-04-24 03:35 20.30681 -103.44155 34001 ft 405 kts 291°
2026-04-24 03:35 20.32734 -103.49732 33360 ft 407 kts 291°
2026-04-24 03:35 20.33770 -103.52551 32595 ft 412 kts 291°
2026-04-24 03:36 20.34821 -103.55409 31808 ft 418 kts 291°
2026-04-24 03:36 20.35884 -103.58302 31025 ft 423 kts 291°
2026-04-24 03:36 20.36959 -103.61232 30259 ft 427 kts 291°
2026-04-24 03:36 20.38035 -103.64163 29346 ft 424 kts 291°
2026-04-24 03:37 20.39093 -103.67048 28571 ft 413 kts 291°
2026-04-24 03:37 20.40123 -103.69859 27835 ft 402 kts 291°
2026-04-24 03:37 20.41124 -103.72591 27124 ft 392 kts 291°
2026-04-24 03:37 20.42099 -103.75256 26432 ft 381 kts 291°
2026-04-24 03:38 20.43046 -103.77844 25760 ft 371 kts 291°
2026-04-24 03:38 20.43967 -103.80362 25108 ft 360 kts 291°
2026-04-24 03:38 20.44861 -103.82809 24475 ft 350 kts 291°
2026-04-24 03:38 20.45729 -103.85184 23862 ft 340 kts 291°
2026-04-24 03:39 20.46573 -103.87496 23268 ft 333 kts 291°
2026-04-24 03:39 20.47417 -103.89808 22695 ft 336 kts 291°
2026-04-24 03:39 20.48258 -103.92113 22210 ft 334 kts 291°
2026-04-24 03:39 20.49095 -103.94409 21878 ft 332 kts 291°
2026-04-24 03:40 20.50208 -103.97461 21532 ft 331 kts 291°
2026-04-24 03:40 20.50761 -103.98980 21360 ft 330 kts 291°
2026-04-24 03:40 20.51588 -104.01253 21089 ft 329 kts 291°
2026-04-24 03:40 20.52407 -104.03501 20817 ft 327 kts 291°
2026-04-24 03:41 20.53230 -104.05766 20542 ft 326 kts 291°
2026-04-24 03:41 20.54044 -104.08004 20271 ft 324 kts 291°
2026-04-24 03:41 20.54856 -104.10237 20001 ft 323 kts 291°
2026-04-24 03:41 20.55665 -104.12464 19732 ft 322 kts 291°
2026-04-24 03:42 20.56468 -104.14676 19464 ft 320 kts 291°
2026-04-24 03:42 20.57269 -104.16882 19196 ft 319 kts 291°
2026-04-24 03:42 20.58068 -104.19083 18928 ft 318 kts 291°
2026-04-24 03:42 20.58860 -104.21267 18661 ft 316 kts 291°
2026-04-24 03:43 20.59648 -104.23442 18393 ft 315 kts 291°
2026-04-24 03:43 20.60445 -104.25616 18114 ft 314 kts 292°
2026-04-24 03:43 20.61324 -104.27728 17659 ft 311 kts 295°
2026-04-24 03:43 20.62236 -104.29805 17203 ft 309 kts 295°
2026-04-24 03:44 20.63158 -104.31863 16873 ft 308 kts 296°
2026-04-24 03:44 20.64080 -104.33900 16607 ft 306 kts 296°
2026-04-24 03:44 20.65012 -104.35950 16351 ft 305 kts 296°
2026-04-24 03:44 20.65932 -104.37967 16098 ft 304 kts 296°
2026-04-24 03:45 20.66860 -104.39996 15843 ft 303 kts 296°
2026-04-24 03:45 20.67778 -104.41997 15591 ft 302 kts 296°
2026-04-24 03:45 20.68701 -104.44008 15341 ft 301 kts 296°
2026-04-24 03:45 20.69610 -104.45986 15095 ft 299 kts 296°
2026-04-24 03:46 20.70530 -104.47985 14849 ft 298 kts 296°
2026-04-24 03:46 20.71440 -104.49962 14607 ft 297 kts 296°
2026-04-24 03:46 20.72349 -104.51937 14367 ft 296 kts 296°
2026-04-24 03:46 20.73254 -104.53903 14131 ft 295 kts 296°
2026-04-24 03:47 20.74155 -104.55860 13899 ft 294 kts 296°
2026-04-24 03:47 20.75055 -104.57813 13670 ft 293 kts 296°
2026-04-24 03:47 20.75950 -104.59759 13445 ft 292 kts 296°
2026-04-24 03:47 20.76842 -104.61697 13224 ft 291 kts 296°
2026-04-24 03:48 20.77725 -104.63625 12868 ft 289 kts 296°
2026-04-24 03:48 20.78606 -104.65547 12506 ft 288 kts 296°
2026-04-24 03:48 20.79486 -104.67467 12066 ft 289 kts 296°
2026-04-24 03:48 20.80362 -104.69376 11615 ft 288 kts 296°
2026-04-24 03:49 20.81245 -104.71300 11161 ft 289 kts 296°
2026-04-24 03:49 20.82125 -104.73217 10645 ft 286 kts 296°
2026-04-24 03:49 20.82987 -104.75096 10202 ft 279 kts 296°
2026-04-24 03:49 20.83818 -104.76906 9791 ft 272 kts 296°
2026-04-24 03:50 20.84615 -104.78644 9412 ft 273 kts 296°
2026-04-24 03:50 20.85443 -104.80465 9070 ft 273 kts 295°
2026-04-24 03:50 20.86005 -104.82395 8729 ft 273 kts 282°
2026-04-24 03:50 20.86289 -104.84390 8383 ft 272 kts 277°
2026-04-24 03:51 20.86524 -104.86384 8033 ft 271 kts 277°
2026-04-24 03:51 20.86755 -104.88378 7694 ft 270 kts 277°
2026-04-24 03:51 20.86982 -104.90366 7365 ft 269 kts 277°
2026-04-24 03:51 20.87205 -104.92340 7047 ft 268 kts 277°
2026-04-24 03:52 20.87424 -104.94308 6739 ft 266 kts 277°
2026-04-24 03:52 20.87638 -104.96257 6456 ft 264 kts 277°
2026-04-24 03:52 20.87847 -104.98185 6179 ft 261 kts 276°
2026-04-24 03:52 20.88047 -105.00109 5897 ft 259 kts 275°
2026-04-24 03:53 20.87795 -105.01998 5539 ft 259 kts 251°
2026-04-24 03:53 20.86873 -105.03624 5221 ft 257 kts 231°
2026-04-24 03:53 20.85681 -105.05034 5067 ft 256 kts 227°
2026-04-24 03:53 20.84563 -105.06335 5028 ft 257 kts 227°
2026-04-24 03:54 20.83354 -105.07738 5011 ft 257 kts 227°
2026-04-24 03:54 20.82152 -105.09129 4922 ft 250 kts 227°
2026-04-24 03:54 20.81005 -105.10455 4593 ft 239 kts 227°
2026-04-24 03:54 20.79884 -105.11750 4051 ft 239 kts 227°
2026-04-24 03:55 20.78748 -105.13061 3421 ft 242 kts 227°
2026-04-24 03:55 20.77624 -105.14356 2917 ft 230 kts 227°
2026-04-24 03:55 20.76622 -105.15542 2672 ft 207 kts 229°
2026-04-24 03:55 20.75761 -105.16662 2528 ft 179 kts 231°
2026-04-24 03:56 20.75004 -105.17607 2217 ft 161 kts 228°
2026-04-24 03:56 20.74284 -105.18454 1893 ft 149 kts 228°
2026-04-24 03:56 20.73612 -105.19247 1592 ft 137 kts 227°
2026-04-24 03:56 20.72970 -105.19969 1360 ft 133 kts 227°
2026-04-24 03:57 20.72336 -105.20683 1084 ft 133 kts 226°
2026-04-24 03:57 20.71716 -105.21376 845 ft 132 kts 226°
2026-04-24 03:57 20.71094 -105.22095 670 ft 132 kts 227°
2026-04-24 03:57 20.70469 -105.22812 485 ft 133 kts 227°
2026-04-24 03:58 20.69844 -105.23529 288 ft 133 kts 227°
2026-04-24 03:58 20.69216 -105.24254 117 ft 133 kts 227°
2026-04-24 03:58 20.68601 -105.24959 38 ft 125 kts 227°
2026-04-24 03:58 20.68115 -105.25520 31 ft 70 kts 226°
2026-04-24 03:59 20.67877 -105.25792 31 ft 43 kts 227°
2026-04-24 03:59 20.67707 -105.25986 31 ft 31 kts 227°
2026-04-24 03:59 20.67606 -105.26045 31 ft 12 kts 180°
2026-04-24 03:59 20.67565 -105.26047 31 ft 0 kts 182°
2026-04-24 04:01 20.67564 -105.26047 31 ft 0 kts 182°
2026-04-24 04:02 20.67556 -105.26047 31 ft 3 kts 183°
2026-04-24 04:02 20.67515 -105.26050 31 ft 8 kts 183°
2026-04-24 04:02 20.67462 -105.26046 31 ft 3 kts 142°
2026-04-24 04:03 20.67468 -105.26013 31 ft 7 kts 46°
2026-04-24 04:03 20.67505 -105.25975 31 ft 8 kts 44°
2026-04-24 04:03 20.67551 -105.25927 31 ft 9 kts 45°
2026-04-24 04:03 20.67601 -105.25872 31 ft 11 kts 46°
2026-04-24 04:04 20.67647 -105.25819 31 ft 9 kts 47°
2026-04-24 04:04 20.67685 -105.25774 31 ft 7 kts 47°
2026-04-24 04:04 20.67721 -105.25733 31 ft 9 kts 47°
2026-04-24 04:04 20.67766 -105.25681 31 ft 11 kts 47°
2026-04-24 04:05 20.67820 -105.25618 31 ft 12 kts 47°
2026-04-24 04:05 20.67884 -105.25546 31 ft 14 kts 47°
2026-04-24 04:05 20.67949 -105.25471 31 ft 12 kts 47°
2026-04-24 04:05 20.68011 -105.25401 31 ft 14 kts 47°
2026-04-24 04:06 20.68065 -105.25338 31 ft 11 kts 47°
2026-04-24 04:06 20.68121 -105.25274 31 ft 13 kts 47°
2026-04-24 04:06 20.68175 -105.25212 31 ft 12 kts 47°
2026-04-24 04:06 20.68225 -105.25155 31 ft 11 kts 47°
2026-04-24 04:07 20.68279 -105.25093 31 ft 12 kts 47°
2026-04-24 04:07 20.68335 -105.25028 31 ft 12 kts 47°
2026-04-24 04:07 20.68397 -105.24956 31 ft 14 kts 47°
2026-04-24 04:07 20.68469 -105.24875 31 ft 16 kts 46°
2026-04-24 04:08 20.68547 -105.24786 31 ft 15 kts 47°
2026-04-24 04:08 20.68588 -105.24724 31 ft 4 kts 104°
2026-04-24 04:08 20.68562 -105.24715 31 ft 5 kts 191°
2026-04-24 04:08 20.68520 -105.24726 31 ft 7 kts 194°
2026-04-24 04:09 20.68465 -105.24740 31 ft 9 kts 193°
2026-04-24 04:09 20.68396 -105.24754 31 ft 11 kts 191°
2026-04-24 04:09 20.68315 -105.24773 31 ft 13 kts 200°
2026-04-24 04:09 20.68237 -105.24826 31 ft 14 kts 225°
2026-04-24 04:10 20.68165 -105.24889 31 ft 11 kts 169°
2026-04-24 04:10 20.68128 -105.24860 31 ft 2 kts 153°
2026-04-24 04:10 20.68108 -105.24865 31 ft 4 kts 209°
2026-04-24 04:11 20.68083 -105.24889 31 ft 0 kts 227°